Probability
0 0 0 0 0 0 0 0 0 0 0 0 0 0 1 0 0 0 0 0 0 1 5 12 22 32 38 42 41 43 62 83 95 98 97 96 93 88 81 69 52 38 31 29
0 0 0 0 0 0 0 0 0 0 0 0 0 1 2 2 1 0 0 0 0 1 6 14 22 33 45 53 55 54 62 79 93 98 98 97 95 91 87 79 66 49 37 32
0 0 0 0 0 0 0 0 0 0 0 0 0 1 2 4 3 2 1 0 0 2 5 11 18 25 38 53 63 65 67 75 88 96 98 96 94 91 88 84 76 61 44 38
0 0 0 0 0 0 0 0 0 0 0 0 0 0 3 5 5 3 1 0 0 1 2 6 9 12 20 34 49 61 68 73 82 92 94 92 91 87 81 78 73 60 46 39
0 0 0 0 0 0 0 0 0 0 0 0 0 0 3 6 5 2 1 0 0 0 1 1 2 5 8 15 27 43 57 65 73 82 88 87 83 77 70 64 58 50 43 40
0 0 0 0 0 0 0 0 0 0 0 0 0 0 2 4 3 1 0 0 0 1 1 1 1 2 3 6 13 24 36 46 55 66 74 74 67 57 49 43 38 35 36 38
0 0 0 0 0 0 0 0 0 0 0 0 0 0 1 1 1 0 0 0 1 2 2 1 2 2 2 3 6 11 17 24 33 43 49 48 42 34 29 26 23 21 25 29
0 0 0 0 0 0 0 0 0 0 0 0 0 1 0 0 0 0 0 1 1 1 2 1 2 3 2 2 2 4 7 11 17 20 21 20 18 15 14 15 13 12 13 16
0 0 0 0 0 0 0 0 0 0 0 0 0 0 0 0 0 0 0 0 0 0 1 2 2 3 3 2 2 2 4 6 7 7 6 5 5 5 5 6 7 6 5 5
0 0 0 0 0 0 0 0 0 0 0 0 0 0 0 0 0 0 0 0 0 0 0 1 2 2 2 2 2 3 3 3 3 2 1 1 1 1 1 2 3 2 1 1
0 0 0 0 0 0 0 0 0 0 0 0 0 0 0 0 0 0 0 0 0 0 0 0 1 1 1 1 2 2 1 1 1 0 0 0 0 0 0 1 1 1 0 1
0 0 0 0 0 0 0 0 0 0 0 0 0 0 0 0 0 0 0 0 0 0 0 0 0 0 0 0 1 1 0 0 0 0 0 0 0 0 0 0 0 0 0 0
0 0 0 0 0 0 0 0 0 0 0 0 0 0 0 0 0 0 0 0 0 0 0 0 0 0 0 0 0 0 0 0 0 0 0 0 0 0 0 0 0 0 0 0
0 0 0 0 0 0 0 0 0 0 0 0 0 0 0 0 0 0 0 0 0 0 0 0 0 0 0 0 0 0 0 0 0 0 0 0 0 0 0 0 0 0 0 0
0 0 0 0 0 0 0 0 0 0 0 0 0 0 0 0 0 0 0 0 0 0 0 0 0 0 0 0 0 0 0 0 0 0 0 0 0 0 0 0 0 0 0 0
0 0 0 0 0 0 0 0 0 0 0 0 0 0 0 0 0 0 0 0 0 0 0 0 0 0 0 0 0 0 0 0 0 0 0 0 0 0 0 0 0 0 0 0
0 0 0 0 0 0 0 0 0 0 0 0 0 0 0 0 0 0 0 0 0 0 0 0 0 0 0 0 0 0 0 0 0 0 0 0 0 0 0 0 0 0 0 0
0 0 0 0 0 0 0 0 0 0 0 0 0 0 0 0 0 0 0 0 0 0 0 0 0 0 0 0 0 0 0 0 0 0 0 0 0 0 0 0 0 0 0 0
0 0 0 0 0 0 0 0 0 0 0 0 0 0 0 0 0 0 0 0 0 0 0 0 0 0 0 0 0 0 0 0 0 0 0 0 0 0 0 0 0 0 0 0
0 0 0 0 0 0 0 0 0 0 0 0 0 0 0 0 0 0 0 0 0 0 0 0 0 0 0 0 0 0 0 0 0 0 0 0 0 0 0 0 0 0 0 0
0 0 0 0 0 0 0 0 0 0 0 0 0 0 0 0 0 0 0 0 0 0 0 0 0 0 0 0 0 0 0 0 0 0 0 0 0 0 0 0 0 0 0 0
0 0 0 0 0 0 0 0 0 0 0 0 0 0 0 0 0 0 0 0 0 0 0 0 0 0 0 0 0 0 0 0 0 0 0 0 0 0 0 0 0 0 0 0
0 0 0 0 0 0 0 0 0 0 0 0 0 0 0 0 0 0 0 0 0 0 0 0 0 0 0 0 0 0 0 0 0 0 0 0 0 0 0 0 0 0 0 0
0 0 0 0 0 0 0 0 0 0 0 0 0 0 0 0 0 0 0 0 0 0 0 0 0 0 0 0 0 0 0 0 0 0 0 0 0 0 0 0 0 0 0 0
0 0 0 0 0 0 0 0 0 0 0 0 0 0 0 0 0 0 0 0 0 0 0 0 0 0 0 0 0 0 0 0 0 0 0 0 0 0 0 0 0 0 0 0
0 0 0 0 0 0 0 0 0 0 0 0 0 0 0 0 0 0 0 0 0 0 0 0 0 0 0 0 0 0 0 0 0 0 0 0 0 0 0 0 0 0 0 0
Wind_Speed
3 3 4 7 8 9 11 12 13 9 3 4 7 5 3 3 2 2 3 4 7 8 9 9 10 9 8 6 6 5 4 7 5 5 5 5 5 4 4 4 5 4 2 3
3 5 8 8 7 9 12 13 12 10 8 8 9 9 2 3 3 5 7 8 9 10 10 10 11 12 12 11 9 8 5 6 7 6 6 6 6 4 4 4 4 5 3 3
6 8 8 9 8 10 12 11 11 12 13 12 13 12 6 4 6 8 8 9 10 11 11 12 11 11 12 12 12 11 9 6 6 8 6 5 5 4 4 4 3 3 3 3
4 10 10 10 11 12 11 12 13 14 13 10 11 9 1 6 11 13 14 13 12 12 11 10 10 11 12 12 12 13 12 10 5 5 9 9 7 6 5 5 4 3 3 2
9 10 11 12 13 12 12 15 16 17 15 14 12 11 3 10 12 14 14 15 14 13 12 12 11 10 11 11 11 11 12 10 8 2 6 8 6 5 4 5 6 5 3 2
9 9 9 10 12 11 14 16 17 14 10 11 8 8 7 10 13 14 15 15 15 14 13 12 12 11 10 10 9 10 10 10 10 7 3 5 7 8 7 6 6 4 3 2
8 12 11 11 13 12 15 13 7 6 2 2 7 5 9 12 15 15 16 16 16 15 14 13 13 12 10 10 10 9 9 9 9 9 7 5 5 6 6 5 5 5 3 2
4 8 11 11 11 11 12 12 8 7 7 7 6 6 7 15 16 16 15 16 16 16 14 13 12 11 10 9 9 8 8 8 8 8 7 7 7 5 4 4 4 4 3 2
7 7 10 10 10 11 11 10 9 7 8 6 4 6 7 16 18 18 18 18 18 16 15 14 12 11 10 9 9 8 8 8 7 8 7 7 7 6 5 4 4 3 2 1
7 2 8 8 9 13 10 10 6 6 6 5 5 7 10 18 19 18 18 18 17 16 14 13 11 10 9 9 9 9 8 8 7 6 6 6 5 5 4 3 3 2 2 0
8 3 7 7 10 13 12 11 8 4 4 4 4 4 8 12 14 15 16 15 15 14 13 12 10 10 10 10 10 10 8 8 7 6 6 6 5 4 3 2 2 1 1 3
6 6 5 10 9 9 11 10 8 5 6 5 3 3 7 8 10 11 13 13 14 13 12 11 11 10 10 10 10 10 9 8 7 6 6 5 4 3 3 2 2 2 4 5
8 6 1 7 4 9 10 12 8 4 4 5 4 3 6 7 8 10 11 11 11 12 12 11 10 10 9 9 9 9 9 8 6 6 5 5 4 2 2 3 3 3 4 4
4 7 10 8 6 6 8 11 12 8 5 4 3 3 7 8 9 9 8 8 8 8 8 9 8 8 7 7 7 8 7 7 6 5 4 4 3 2 2 3 3 3 3 3
2 8 11 9 6 6 8 9 10 10 6 4 3 4 6 6 6 7 6 7 8 8 8 7 7 6 6 5 5 5 5 5 6 6 6 6 5 4 4 4 5 5 6 6
3 5 7 8 5 5 7 6 6 6 5 4 3 4 3 3 4 6 7 8 8 8 9 8 7 6 6 6 6 6 6 5 5 6 6 6 6 6 6 6 6 6 7 7
1 3 2 5 6 4 3 5 4 4 4 3 4 3 3 4 6 7 7 8 8 8 8 8 7 6 6 6 6 6 6 6 6 7 7 7 7 7 7 7 7 6 7 7
3 2 3 2 6 0 6 5 3 1 3 2 1 1 2 1 2 5 6 7 8 8 8 8 7 6 6 6 5 6 6 7 7 7 7 7 7 7 7 7 7 7 6 6
5 3 4 3 1 6 7 7 5 2 4 3 2 3 3 2 3 7 9 8 7 7 6 6 7 7 7 6 6 6 7 7 7 6 6 7 7 7 7 6 6 6 5 5
2 3 5 4 4 2 7 10 5 3 3 5 2 4 6 6 4 6 7 7 6 5 5 6 6 7 6 6 6 6 7 7 6 6 6 6 6 6 7 6 5 4 4 4
5 5 5 5 3 6 10 10 6 3 6 7 4 5 7 8 6 5 6 6 5 4 5 5 5 5 5 5 5 6 6 6 5 5 5 5 5 5 6 6 5 5 5 4
4 2 3 3 2 4 12 8 3 6 8 7 6 6 5 5 5 5 6 5 5 5 5 5 4 4 3 4 5 5 4 3 3 3 3 4 5 6 6 5 6 6 6 6
3 3 4 4 4 8 10 5 5 6 7 7 6 5 3 4 5 5 5 5 5 5 5 4 4 4 3 4 4 4 3 2 2 3 3 4 5 5 6 6 6 6 6 5
3 3 2 2 8 10 8 8 6 4 6 6 5 4 3 4 5 5 4 5 5 5 4 4 4 5 4 2 3 3 2 1 1 3 3 4 5 5 6 5 5 6 6 6
1 5 4 4 7 9 9 8 9 7 6 6 4 3 3 3 4 4 4 5 4 4 4 4 4 4 5 3 3 4 4 4 2 4 4 5 4 4 5 5 5 5 5 4
5 6 4 3 8 8 11 11 11 10 8 6 5 4 2 2 3 4 4 4 4 5 5 5 4 4 5 4 4 4 3 4 4 4 4 3 3 3 4 5 4 7 6 6
Wind_Direction
244 288 12 9 354 327 313 304 301 304 317 305 290 266 182 132 111 64 24 19 26 19 11 19 5 351 333 319 307 284 221 186 186 171 175 169 168 163 157 154 155 156 142 111
247 45 21 349 323 315 314 306 304 316 343 326 300 286 226 148 98 52 28 17 22 14 3 12 6 358 350 344 332 307 281 212 194 188 184 172 162 159 153 143 139 144 150 136
35 43 2 333 336 350 326 333 338 327 320 299 284 270 232 133 72 56 31 24 23 16 7 1 1 357 350 347 342 332 316 284 216 188 180 162 145 149 151 146 139 139 141 130
46 33 4 351 2 354 319 339 324 306 296 287 283 282 315 82 53 33 16 12 15 12 4 1 3 359 351 347 344 339 333 321 295 194 177 171 166 169 168 153 137 127 123 125
67 38 19 6 352 332 320 316 298 284 276 275 276 272 36 39 31 19 10 2 4 3 1 1 3 359 354 353 350 344 344 343 345 338 174 170 162 158 138 128 124 121 108 106
97 80 51 9 337 338 328 315 294 269 253 256 276 277 59 26 13 4 4 358 358 358 359 1 0 360 0 360 358 358 2 6 6 13 69 139 144 138 134 133 131 121 110 91
116 87 57 22 359 355 344 338 327 327 295 313 357 38 53 16 9 5 360 355 357 358 359 1 2 357 359 3 3 9 13 16 19 30 47 79 109 123 131 133 129 123 116 116
3 77 47 25 15 349 345 355 350 326 326 331 18 65 51 12 3 3 2 357 357 359 360 4 4 1 360 5 6 18 25 27 29 43 56 69 80 81 85 94 107 108 110 127
359 74 71 41 28 17 355 358 332 312 306 309 48 54 16 3 360 1 1 360 1 358 360 3 3 5 7 9 13 21 31 37 41 53 64 69 77 82 82 83 88 96 116 135
336 42 79 56 29 30 12 354 347 347 340 341 44 44 354 349 351 352 357 360 358 356 359 2 5 9 15 18 19 26 36 42 48 54 62 72 76 83 86 84 84 79 70 15
335 319 104 68 38 22 15 11 360 346 2 356 7 39 351 339 342 346 355 358 358 357 2 8 12 16 20 23 25 25 28 35 37 44 54 59 62 63 67 63 59 64 248 248
10 319 82 88 84 57 35 15 8 15 20 14 36 28 341 334 336 348 358 1 1 4 8 16 20 22 25 25 23 25 24 30 31 34 44 50 49 43 27 351 315 284 273 266
346 331 84 139 122 44 32 22 27 48 55 35 35 348 336 335 350 4 4 4 4 6 10 17 20 21 23 23 23 25 23 23 27 33 37 37 37 24 349 315 296 277 269 277
296 38 47 65 58 29 37 36 39 50 60 65 48 345 355 358 357 1 1 6 5 5 8 16 18 17 22 26 24 24 20 21 25 29 36 38 25 1 330 321 318 318 321 317
309 80 86 94 98 78 65 55 54 59 59 65 52 23 1 344 343 347 357 4 11 10 15 17 18 18 23 29 33 31 28 30 30 31 33 29 28 25 22 16 11 11 9 4
30 122 136 131 133 112 89 74 69 68 66 75 78 51 344 333 351 3 9 15 20 16 14 18 26 26 28 33 39 38 38 38 41 42 40 35 35 30 28 27 25 25 23 17
142 216 233 143 163 211 112 95 85 75 60 37 41 26 338 5 18 18 16 22 24 23 13 10 22 25 29 38 51 50 43 41 42 44 39 36 38 37 33 31 29 33 37 34
307 285 278 206 188 142 100 120 129 128 109 89 52 350 309 334 34 45 33 29 26 21 11 4 17 27 27 29 52 67 54 44 39 40 43 39 35 35 34 35 35 34 39 43
332 315 294 308 70 124 149 170 188 219 116 113 66 25 341 233 146 60 41 35 29 18 8 360 10 25 26 27 37 57 62 52 42 37 41 41 36 31 29 31 35 32 32 40
223 267 285 289 298 73 132 140 153 228 156 127 77 37 16 36 70 39 28 31 24 20 7 358 11 20 17 21 34 48 57 51 42 34 36 42 40 35 28 23 24 26 30 32
199 204 240 276 301 95 123 135 167 238 119 126 101 61 46 45 46 26 21 25 14 20 16 3 7 13 7 15 42 48 48 52 47 36 34 35 34 47 41 22 17 20 22 22
290 266 244 267 270 137 143 158 196 104 116 125 103 73 57 43 40 30 23 22 14 11 19 7 357 350 355 29 39 60 50 51 65 51 42 52 48 38 39 35 26 23 18 24
237 313 345 12 66 109 150 150 103 123 130 115 102 86 60 39 34 25 17 21 14 6 15 355 338 343 11 41 41 54 59 35 73 66 43 64 75 63 40 36 35 28 25 26
162 114 269 247 156 159 170 136 137 144 114 106 104 101 60 34 27 18 16 24 12 1 0 347 358 8 355 20 51 56 35 344 106 97 67 71 69 70 59 37 40 42 25 20
137 147 220 240 138 151 182 169 164 161 145 143 137 112 76 32 21 8 20 22 4 352 356 8 17 345 330 18 60 61 20 342 38 89 85 85 83 88 85 67 43 45 53 35
207 181 202 228 169 170 183 178 171 166 170 166 159 147 127 72 26 7 18 13 0 360 5 7 4 342 348 20 49 71 30 350 33 70 67 68 91 96 120 121 93 51 60 55